Tracking 28790 objects as of 19-Apr-2024
HD Live streaming from Space Station
objects crossing your sky now

FENGYUN 1C DEB

Track FENGYUN 1C DEB now!
10-day predictions


NORAD ID: 32088
Int'l Code: 1999-025CQE
Perigee: 838.3 km
Apogee: 1,534.8 km
Inclination: 102.4 °
Period: 109.0 minutes
Semi major axis: 7557 km
RCS: 0.0006 m2 (small)
Launch date: May 10, 1999
Source: People's Republic of China (PRC)
Launch site: Taiyaun Space Center, China (TSC)

Note: This is SATELLITE DEBRIS
Your satellite tracking list
Your tracking list is empty




NASA's NSSDC Master Catalog

Two Line Element Set (TLE):
1 32088U 99025CQE 24107.55046805  .00007178  00000-0  10068-1 0  9992
2 32088 102.3891 212.7427 0460800 207.5691 150.0275 13.21403516518381
Source of the keplerian elements: AFSPC